Weather History for EICK - October, 2011

Change the Weather History Date:

Wednesday, October 19, 2011

  Actual Average Record
Temperature  
Mean Temperature 45 °F -  
Max Temperature 50 °F 52 °F 60 °F (1997)
Min Temperature 40 °F 42 °F 35 °F (2002)
Degree Days  
Heating Degree Days 20    
Moisture  
Dew Point 40 °F    
Average Humidity 84    
Maximum Humidity 100    
Minimum Humidity 61    
Precipitation  
Precipitation 0.02 in 0.15 in - ()
Sea Level Pressure  
Sea Level Pressure 30.23 in    
Wind  
Wind Speed 9 mph ()    
Max Wind Speed 20 mph    
Max Gust Speed -    
Visibility 6.7 miles    
Events Rain    
Averages and records for this station are not official NWS values.
T = Trace of Precipitation, MM = Missing Value Source: Averaged Metar Reports

Daily Weather History Graph

Daily Weather History Graph

Search for Another Location

Airport or City:

Trip Planner

Search our weather history database for the weather conditions in past years. The results will help you decide how hot, cold, wet, or windy it might be!

Date:

Astronomy

Oct. 19, 2011 Rise Set
Actual Time 8:04 AM IST 6:32 PM IST
Civil Twilight 7:30 AM IST 7:06 PM IST
Nautical Twilight 6:51 AM IST 7:45 PM IST
Astronomical Twilight 6:12 AM IST 8:24 PM IST
Moon 11:43 PM IST (10/19) 2:48 PM IST (10/19)
Length of Visible Light 11h 36m
Length of Day
10h 27m
Waning Gibbous, 57% of the Moon is Illuminated
Oct 19
Waning Gibbous
Oct 20
Last Quarter
Oct 26
New
Nov 2
First Quarter
Nov 10
Full

Hourly Weather History & Observations

Time (IST) Temp. Windchill Dew Point Humidity Pressure Visibility Wind Dir Wind Speed Gust Speed Precip Events Conditions
12:00 AM 42.8 °F 36.6 °F 39.2 °F 87% 30.06 in 6.2 mi WNW 11.5 mph - N/A   Mostly Cloudy
12:30 AM 42.8 °F 37.5 °F 39.2 °F 87% 30.06 in 6.2 mi West 9.2 mph - N/A   Scattered Clouds
1:00 AM 42 °F - 39 °F 87% 30.09 in 19 mi WNW 8.9 mph - -   Partly Cloudy
1:00 AM 42.8 °F 37.5 °F 39.2 °F 87% 30.06 in 6.2 mi WNW 9.2 mph - N/A   Partly Cloudy
1:30 AM 42.8 °F 37.5 °F 39.2 °F 87% 30.06 in 6.2 mi WNW 9.2 mph - N/A   Partly Cloudy
2:00 AM 41.0 °F 36.4 °F 39.2 °F 93% 30.06 in 6.2 mi WNW 6.9 mph - N/A   Partly Cloudy
2:30 AM 41.0 °F 35.8 °F 39.2 °F 93% 30.09 in 6.2 mi WNW 8.1 mph - N/A   Partly Cloudy
3:00 AM 42.8 °F 37.5 °F 39.2 °F 87% 30.09 in 6.2 mi West 9.2 mph - N/A   Partly Cloudy
3:30 AM 41.0 °F 35.8 °F 39.2 °F 93% 30.09 in 6.2 mi WNW 8.1 mph - N/A   Partly Cloudy
4:00 AM 42.8 °F 36.6 °F 39.2 °F 87% 30.09 in 6.2 mi WNW 11.5 mph - N/A   Partly Cloudy
4:30 AM 41.0 °F 35.2 °F 39.2 °F 93% 30.09 in 6.2 mi NW 9.2 mph - N/A   Partly Cloudy
5:00 AM 42.8 °F 36.2 °F 39.2 °F 87% 30.09 in 6.2 mi WNW 12.7 mph - N/A   Partly Cloudy
5:30 AM 41.0 °F 33.9 °F 39.2 °F 93% 30.12 in 6.2 mi NW 12.7 mph - N/A   Partly Cloudy
6:00 AM 41.0 °F 34.7 °F 41.0 °F 100% 30.12 in 6.2 mi WNW 10.4 mph - N/A   Partly Cloudy
6:30 AM 41.0 °F 35.2 °F 39.2 °F 93% 30.15 in 6.2 mi WNW 9.2 mph - N/A   Scattered Clouds
7:00 AM 42 °F - 40 °F 90% 30.18 in 16 mi WNW 8.9 mph - - Rain Light Rain Showers
7:00 AM 42.8 °F 37.5 °F 41.0 °F 93% 30.15 in 6.2 mi WNW 9.2 mph - N/A Rain Light Rain Showers
7:30 AM 41.0 °F 36.4 °F 39.2 °F 93% 30.15 in 6.2 mi West 6.9 mph - N/A   Scattered Clouds
8:00 AM 42.8 °F 38.6 °F 41.0 °F 93% 30.15 in 6.2 mi WNW 6.9 mph - N/A   Scattered Clouds
8:30 AM 41.0 °F 36.4 °F 39.2 °F 93% 30.18 in 6.2 mi West 6.9 mph - N/A   Scattered Clouds
9:00 AM 42.8 °F 36.6 °F 41.0 °F 93% 30.18 in 6.2 mi WNW 11.5 mph - N/A   Scattered Clouds
9:30 AM 42.8 °F 38.0 °F 41.0 °F 93% 30.21 in 6.2 mi WNW 8.1 mph - N/A   Scattered Clouds
10:00 AM 44.6 °F 40.2 °F 41.0 °F 87% 30.21 in 6.2 mi WNW 8.1 mph - N/A   Mostly Cloudy
10:30 AM 44.6 °F 39.2 °F 42.8 °F 93% 30.21 in 6.2 mi NW 10.4 mph - N/A   Scattered Clouds
11:00 AM 44.6 °F 40.2 °F 42.8 °F 93% 30.21 in 6.2 mi NW 8.1 mph - N/A   Mostly Cloudy
11:30 AM 46.4 °F 41.5 °F 42.8 °F 87% 30.24 in 6.2 mi NW 10.4 mph - N/A   Mostly Cloudy
12:00 PM 48.2 °F - 41.0 °F 76% 30.24 in 6.2 mi NW 16.1 mph - N/A   Scattered Clouds
12:30 PM 48.2 °F - 41.0 °F 76% 30.24 in 6.2 mi NW 16.1 mph - N/A   Scattered Clouds
1:00 PM 49 °F - 40 °F 61% 30.28 in 25 mi NNW 15.7 mph - - Rain Light Rain Showers
1:00 PM 48.2 °F - 39.2 °F 71% 30.24 in 6.2 mi NNW 15.0 mph - N/A   Scattered Clouds
1:30 PM 48.2 °F - 41.0 °F 76% 30.27 in 6.2 mi NW 18.4 mph - N/A Rain Light Rain Showers
2:00 PM 50.0 °F - 41.0 °F 71% 30.27 in 6.2 mi NW 16.1 mph - N/A   Scattered Clouds
2:30 PM 50.0 °F - 41.0 °F 71% 30.27 in 6.2 mi WNW 16.1 mph - N/A   Partly Cloudy
3:00 PM 50.0 °F - 39.2 °F 66% 30.27 in 6.2 mi NW 15.0 mph - N/A   Mostly Cloudy
3:30 PM 48.2 °F - 39.2 °F 71% 30.27 in 6.2 mi NW 5.8 mph - N/A   Partly Cloudy
4:00 PM 48.2 °F - 37.4 °F 66% 30.30 in 6.2 mi NW 16.1 mph - N/A   Scattered Clouds
4:30 PM 46.4 °F 39.0 °F 39.2 °F 76% 30.30 in 6.2 mi NNW 19.6 mph - N/A Rain Light Rain Showers
5:00 PM 46.4 °F 39.8 °F 39.2 °F 76% 30.30 in 6.2 mi NNW 16.1 mph - N/A   Partly Cloudy
5:30 PM 46.4 °F 41.5 °F 39.2 °F 76% 30.30 in 6.2 mi NW 10.4 mph - N/A   Partly Cloudy
6:00 PM 46.4 °F 41.9 °F 39.2 °F 76% 30.33 in 6.2 mi NW 9.2 mph - N/A   Partly Cloudy
6:30 PM 44.6 °F 40.7 °F 39.2 °F 81% 30.33 in 6.2 mi WNW 6.9 mph - N/A   Scattered Clouds
7:00 PM 44 °F - 39 °F 76% 30.38 in 22 mi West 6.7 mph - -   Partly Cloudy
7:00 PM 44.6 °F 41.4 °F 39.2 °F 81% 30.36 in 6.2 mi West 5.8 mph - N/A   Partly Cloudy
7:30 PM 44.6 °F 41.4 °F 39.2 °F 81% 30.36 in 6.2 mi West 5.8 mph - N/A   Partly Cloudy
8:00 PM 44.6 °F 41.4 °F 39.2 °F 81% 30.36 in 6.2 mi West 5.8 mph - N/A   Partly Cloudy
8:30 PM 42.8 °F 38.6 °F 39.2 °F 87% 30.36 in 6.2 mi West 6.9 mph - N/A   Partly Cloudy
9:00 PM 44.6 °F 40.7 °F 39.2 °F 81% 30.39 in 6.2 mi West 6.9 mph - N/A   Scattered Clouds
9:30 PM 44.6 °F 40.7 °F 39.2 °F 81% 30.36 in 6.2 mi West 6.9 mph - N/A   Scattered Clouds
10:00 PM 42.8 °F 38.6 °F 39.2 °F 87% 30.36 in 6.2 mi West 6.9 mph - N/A   Scattered Clouds
10:30 PM 42.8 °F 38.0 °F 39.2 °F 87% 30.39 in 6.2 mi WNW 8.1 mph - N/A   Scattered Clouds
11:00 PM 42.8 °F 39.3 °F 39.2 °F 87% 30.39 in 6.2 mi West 5.8 mph - N/A   Scattered Clouds
11:30 PM 42.8 °F 38.6 °F 39.2 °F 87% 30.39 in 6.2 mi West 6.9 mph - N/A   Scattered Clouds